305  
FPUS83 KFGF 221710  
OPUFGF  
PRAIRIE TO PINES WEATHER ROUNDUP  
NATIONAL WEATHER SERVICE EASTERN NORTH DAKOTA/GRAND FORKS ND  
1100 AM CST TUE JAN 22 2019  
 
**SATELLITE DATA USED TO AUGMENT SKY COVER AT AUTOMATED STATIONS**  
***** WEATHER ACROSS EASTERN NORTH DAKOTA *****  
 
CITY SKY/WX TMP DP RH WIND PRES REMARKS  
GRAND FORKS LGT SNOW 12 7 80 NW12 30.10R WCI -2  
GRND FORKS AFB LGT SNOW 12 9 85 N9 30.12R WCI 0  
GRND FORKS NWS N/A 13 11 93 NW10 30.06R WCI 0  
BUXTON NOT AVBL  
DEVILS LAKE FLURRIES 12 8 84 N17 30.09S WCI -5  
FARGO LGT SNOW 12 8 84 NW8 30.11R FOG WCI 0  
WAHPETON ARPT CLOUDY 14 9 79 NW9 30.11R WCI 2  

 
 
***** WEATHER ACROSS CENTRAL AND WESTERN NORTH DAKOTA *****  
 
CITY SKY/WX TMP DP RH WIND PRES REMARKS  
JAMESTOWN FLURRIES 14 10 84 NW17 30.07S WCI -3  
BISMARCK FAIR 16 8 71 NW10G22 30.17R WCI 4  
MINOT FAIR 12 5 73 W14 30.14R WCI -3  
MINOT AFB FAIR 8 3 80 NW10 30.13R WCI -6  
GARRISON N/A 13 8 81 NW10 30.14R WCI 0  
WILLISTON CLOUDY 22 16 78 SW8 30.14F WCI 12  
DICKINSON CLOUDY 22 17 81 NW16 30.12R WCI 8  
HETTINGER CLOUDY 20 16 84 NW20 30.15R WCI 4  

 
 
***** OTHER OBSERVATIONS NORTHEAST NORTH DAKOTA *****  
 
CITY SKY/WX TMP DP RH WIND PRES REMARKS  
WALHALLA N/A 12 12 100 NW12G18 30.10S FOG WCI -2  
LANGDON FLURRIES 12 12 100 NW15 30.05S WCI -4  
CAVALIER LGT SNOW 12 9 85 NW14 30.10R WCI -3  
GRAFTON CLOUDY 12 10 92 NW8 30.12R FOG WCI 1  
CANDO FLURRIES 14 10 85 N13 30.11S WCI 0  
FORT TOTTEN N/A 15 10 81 NW6 29.95S WCI 6  
ROLLA FLURRIES 10 7 85 NW15 30.08R WCI -6  
RUGBY FAIR 7 5 92 NW16 30.12R WCI -11  
***** THE ABOVE OBSERVATIONS ARE NON NWS ARE NOT QUALITY  
CONTROLLED AND MAY MIS-REPORT RAIN FOR SNOW...  

 
 
***** OTHER OBSERVATIONS SOUTHEAST NORTH DAKOTA *****  
 
CITY SKY/WX TMP DP RH WIND PRES REMARKS  
COOPERSTOWN LGT SNOW 12 10 92 NW15 30.08R WCI -4  
VALLEY CITY N/A N/A N/A N/A MISG N/A  
OAKES CLOUDY 10 9 92 NW9 30.10R WCI -2  
GWINNER N/A 12 7 79 NW9 30.10R WCI 0  
BUFFALO NOT AVBL  
WYNDMERE NOT AVBL  
***** THE ABOVE OBSERVATIONS ARE NON NWS ARE NOT QUALITY  
CONTROLLED AND MAY MIS-REPORT RAIN FOR SNOW...  

 
 
***** WEATHER ACROSS NORTHERN MINNESOTA *****  
 
CITY SKY/WX TMP DP RH WIND PRES REMARKS  
FLAG ISLAND FLURRIES 12 7 79 W8 30.03S WCI 1  
WARROAD LGT SNOW 12 9 85 W5 30.05R WCI 4  
ROSEAU NOT AVBL  
HALLOCK LGT SNOW 12 9 85 NW9 30.08S WCI 0  
THF RVR FALLS LGT SNOW 11 7 84 W7 30.07S FOG WCI 0  
HALSTAD NOT AVBL  
FOSSTON CLOUDY 10 7 85 W6 30.06R WCI 1  
BAUDETTE CLOUDY 12 6 77 NW9 30.02S WCI 0  
WASKISH FLURRIES 10 9 92 W6 30.03S WCI 1  
CROOKSTON NOT AVBL  

 
***** WEATHER ACROSS CENTRAL AND WEST MINNESOTA *****  
 
CITY SKY/WX TMP DP RH WIND PRES REMARKS  
BEMIDJI FAIR 11 6 81 W9 30.02R WCI -1  
PARK RAPIDS FAIR 9 6 88 NW5 30.02R WCI 1  
WADENA FAIR 12 9 85 NW3 30.03S  
DETROIT LAKES LGT SNOW 14 10 85 NW7 30.06R WCI 4  
MOORHEAD CLOUDY 12 7 79 NW7 30.10S WCI 2  
FERGUS FALLS FLURRIES 12 7 79 NW6 30.08R WCI 3  
ELBOW LAKE FAIR 12 8 83 CALM 30.07R  
MORRIS MN FAIR 10 3 72 N8 30.08R WCI -1  
STAPLES FAIR 10 9 92 CALM 30.04R  
WHEATON FAIR 12 7 79 NW8 30.12R WCI 1  

 
***** WEATHER ELSEWHERE ACROSS MINNESOTA *****  
 
CITY SKY/WX TMP DP RH WIND PRES REMARKS  
DULUTH FAIR 15 8 73 W8 29.99S WCI 4  
INTRNTL FALLS CLOUDY 13 8 81 W8 30.02F WCI 2  
ELY FLURRIES 16 9 73 W7 29.98S WCI 6  
CLOQUET FLURRIES 16 9 73 W5 30.01S WCI 9  
BRAINERD FAIR 15 9 76 NW3 30.04R  
HIBBING FAIR 13 8 81 W5 30.00S WCI 5  
ALEXANDRIA FAIR 17 8 67 NW5 30.04R WCI 10  
SAINT CLOUD CLOUDY 16 11 80 W3 30.04S HAZE  
MINNEAPOLIS LGT SNOW 17 14 88 CALM 30.04S FOG  

 
 
***** WEATHER ACROSS SOUTH DAKOTA *****  
 
CITY SKY/WX TMP DP RH WIND PRES REMARKS  
SIOUX FALLS PTSUNNY 18 13 80 N16 30.03R WCI 3  
BROOKINGS FAIR 13 8 81 N13 30.03R WCI -2  
WATERTOWN CLOUDY 11 6 81 NW15 30.03R WCI -5  
HURON MIX PCPN 13 7 77 N20 30.11R WCI -5  
SISSETON N/A 11 7 84 NW14 30.09R WCI -5  
ABERDEEN LGT SNOW 13 8 81 NW13 30.13R WCI -2  
MITCHELL CLOUDY 13 6 74 N21 30.12R WCI -5  
PIERRE LGT SNOW 17 13 84 NW15 30.16R FOG WCI 2  
MOBRIDGE LGT SNOW 20 12 71 N18G28 30.11R WCI 5  
RAPID CITY FAIR 24 16 71 N21G35 30.13R WCI 9  

 
 
***** SOME WEATHER IN NEARBY STATES *****  
 
CITY SKY/WX TMP DP RH WIND PRES REMARKS  
GLASGOW MT FAIR 21 17 84 S7 30.10F WCI 12  
GREAT FALLS MT FAIR 26 19 74 SW25 30.07F WCI 11  
CHEYENNE WY MIX PCPN 21 17 84 N22G35 30.05R WCI 5  
SCOTTSBLUFF NE CLOUDY 27 20 75 N21 30.13R WCI 13  
OMAHA NE CLOUDY 25 20 81 N21G28 29.97R WCI 11  
DES MOINES IA FRZ DRZL 28 27 96 NE7 29.93R FOG WCI 21  
DAVENPORT IA CLOUDY 27 24 89 SE10 30.00F FOG WCI 17  
CHICAGO IL FRZ DRZL 22 20 92 S13 30.09F FOG WCI 10  
EAU CLAIRE WI CLOUDY 15 11 83 SE5 30.04R FOG WCI 8  
LA CROSSE WI LGT SNOW 19 16 88 E5 30.04F FOG WCI 12  

 
 
***** SOME NATIONAL WEATHER *****  
 
CITY SKY/WX TMP DP RH WIND PRES REMARKS  
LA GUARDIA NY PTSUNNY 24 -1 33 NW10 30.64F WCI 14  
RALEIGH NC FAIR 32 2 27 CALM 30.70F  
ATLANTA GA CLOUDY 38 11 32 E14 30.52F  
NEW ORLEANS LA PTSUNNY 68 54 60 SE18G26 30.17F  
OKLAHOMA CITY CLOUDY 54 49 83 S17 29.77S  
ALBUQUERQUE NM FLURRIES 33 26 75 N3 29.93R  
SALT LAKE CITY FAIR 25 16 68 SW5 30.36R WCI 19  
LOS ANGELES CA FAIR 59 25 27 N7 30.25R  
BOISE ID FAIR 27 21 78 CALM 30.46S  
SEATTLE WA CLOUDY 45 35 68 S14 30.34F  

 
 
*** WEATHER ACROSS MANITOBA...SASKATCHEWAN AND ONTARIO ***  
***ONTARIO***  
 
CITY SKY/WX TMP DP RH WIND PRES REMARKS  
GERALDTON LGT SNOW 18 14 86 CALM 29.98F VSB 1  
THUNDER BAY LGT SNOW 19 16 86 W7 30.00F WCI 10  
SIOUX LOOKOUT LGT SNOW 10 5 79 NW7 29.98S WCI 0  
TORONTO CLOUDY 18 10 73 S9 30.51F WCI 6  
BIG TROUT LK FLURRIES 5 1 85 W7 29.95F WCI -7  
PICKLE LAKE FLURRIES 10 5 79 SW8 29.94F WCI -1  
DRYDEN LGT SNOW 9 5 85 W5 29.96F WCI 0  
KENORA LGT SNOW 10 7 85 W7 30.00R WCI 0  

 
*** MANITOBA***  
 
CITY SKY/WX TMP DP RH WIND PRES REMARKS  
BRANDON MOSUNNY 1 -4 78 SW7 30.09F WCI -11  
DAUPHIN SUNNY 7 1 78 W10 30.09S WCI -8  
ISLAND LAKE FLURRIES 3 -4 72 W9 29.99R WCI -11  
PILOT MOUND N/A 10 5 79 NW7 N/A WCI 0  
THE PAS CLOUDY 5 -2 72 CALM 30.04F HAZE  
THOMPSON MOSUNNY -9 -13 84 W5 29.99S WCI -21  
WINNIPEG FLURRIES 12 7 79 NW10 30.10R WCI -1  
LYNN LAKE PTCLDY -9 -13 84 W7 29.92F WCI -24  
CHURCHILL CRYSTALS -24 -31 69 W5 30.02F WCI -38  
GILLAM MOSUNNY -8 -13 77 S2 29.98S  

 
***SASKATCHEWAN***  
 
CITY SKY/WX TMP DP RH WIND PRES REMARKS  
ESTEVAN CLOUDY 12 10 92 SW5 30.09F FOG WCI 4  
KINDERSLEY PTSUNNY 12 10 92 S23 29.89F WCI -7  
LLOYDMINSTER PTSUNNY 14 9 79 N6 29.83S WCI 5  
PRINCE ALBERT FLURRIES 12 7 79 SE5 29.96F WCI 4  
REGINA FOG 12 10 92 SE10 30.03S VSB 1/2 WCI -1  
YORKTON CLOUDY 9 3 78 S9 30.02F WCI -5  
N. BATTLEFORD SUNNY 12 10 92 S3 29.91S  
 
CLICK HERE TO GO TO PREVIOUS BULLETINS.

The Nexlab ND Page
The Nexlab MN Page Main Text Page